TimeHST,TemperatureF,Dew PointF,Humidity,Sea Level PressureIn,VisibilityMPH,Wind Direction,Wind SpeedMPH,Gust SpeedMPH,PrecipitationIn,Events,Conditions,WindDirDegrees,DateUTC
12:56 AM,33.1,19.9,59,30.06,10.0,NNE,24.2,-,N/A,,Scattered Clouds,20,2012-12-07 10:56:00
1:56 AM,32.0,23.0,69,30.06,10.0,NNE,23.0,-,N/A,,Overcast,20,2012-12-07 11:56:00
2:56 AM,33.1,24.1,70,30.04,10.0,NE,21.9,27.6,N/A,,Scattered Clouds,40,2012-12-07 12:56:00
3:03 AM,32.0,24.8,75,30.03,10.0,NNE,18.4,27.6,N/A,,Mostly Cloudy,30,2012-12-07 13:03:00
3:14 AM,33.8,24.8,70,30.03,6.2,NNE,26.5,31.1,N/A,Snow,Light Snow,20,2012-12-07 13:14:00
4:06 AM,32.0,24.8,75,30.02,9.0,NNE,16.1,-,N/A,,Mostly Cloudy,20,2012-12-07 14:06:00
4:56 AM,32.0,25.0,75,30.02,9.0,NE,16.1,26.5,N/A,,Mostly Cloudy,40,2012-12-07 14:56:00
5:56 AM,32.0,21.9,66,30.01,10.0,NNE,24.2,-,N/A,,Scattered Clouds,20,2012-12-07 15:56:00
6:31 AM,30.2,26.6,86,29.99,-9999.0,North,17.3,-,N/A,Snow,Light Snow,10,2012-12-07 16:31:00
6:56 AM,32.0,25.0,75,29.99,10.0,North,19.6,-,N/A,,Mostly Cloudy,10,2012-12-07 16:56:00
7:56 AM,32.0,25.0,75,29.99,7.0,NNE,28.8,32.2,N/A,Snow,Light Snow,20,2012-12-07 17:56:00
8:20 AM,30.2,26.6,86,29.97,6.2,NNE,20.7,26.5,N/A,,Mostly Cloudy,20,2012-12-07 18:20:00
8:56 AM,30.0,27.0,88,29.98,5.0,NNE,21.9,35.7,N/A,Snow,Light Snow,20,2012-12-07 18:56:00
9:04 AM,30.2,26.6,86,29.97,6.2,NNE,18.4,28.8,N/A,Snow,Light Snow,20,2012-12-07 19:04:00
9:56 AM,32.0,21.9,66,29.97,10.0,North,25.3,31.1,N/A,,Scattered Clouds,10,2012-12-07 19:56:00
10:56 AM,30.9,23.0,72,29.96,10.0,North,25.3,-,N/A,,Mostly Cloudy,10,2012-12-07 20:56:00
11:56 AM,30.9,23.0,72,29.94,10.0,North,25.3,31.1,N/A,,Scattered Clouds,360,2012-12-07 21:56:00
12:56 PM,32.0,24.1,73,29.92,10.0,North,26.5,36.8,N/A,,Scattered Clouds,10,2012-12-07 22:56:00
1:32 PM,30.2,24.8,80,29.91,2.5,NNE,27.6,35.7,N/A,Snow,Light Snow,20,2012-12-07 23:32:00
1:34 PM,30.2,24.8,80,29.90,1.5,North,23.0,35.7,N/A,Snow,Light Snow,10,2012-12-07 23:34:00
1:38 PM,30.2,26.6,86,29.90,1.8,NNE,26.5,31.1,N/A,Snow,Light Snow,20,2012-12-07 23:38:00
1:42 PM,30.2,26.6,86,29.90,-9999.0,NNE,25.3,31.1,N/A,Snow,Light Snow,20,2012-12-07 23:42:00
1:53 PM,30.2,26.6,86,29.89,-9999.0,NNE,28.8,35.7,N/A,Snow,Light Snow,30,2012-12-07 23:53:00
1:56 PM,30.0,26.1,85,29.89,2.0,NNE,28.8,35.7,N/A,Snow,Light Snow,30,2012-12-07 23:56:00
2:11 PM,30.2,26.6,86,29.88,9.0,North,24.2,-,N/A,Snow,Light Snow,10,2012-12-08 00:11:00
2:36 PM,30.2,26.6,86,29.88,6.2,NNE,24.2,38.0,N/A,Snow,Light Snow,20,2012-12-08 00:36:00
2:56 PM,30.9,26.1,82,29.88,1.5,NNE,26.5,34.5,N/A,Snow,Light Snow,20,2012-12-08 00:56:00
3:00 PM,30.2,26.6,86,29.86,1.2,NNE,24.2,34.5,N/A,Snow,Light Snow,20,2012-12-08 01:00:00
3:02 PM,30.2,26.6,86,29.86,1.5,NNE,28.8,-,N/A,Snow,Light Snow,20,2012-12-08 01:02:00
3:04 PM,30.2,26.6,86,29.86,-9999.0,NNE,24.2,31.1,N/A,Snow,Light Snow,20,2012-12-08 01:04:00
3:12 PM,30.2,26.6,86,29.86,5.0,North,26.5,33.4,N/A,Snow,Light Snow,10,2012-12-08 01:12:00
3:27 PM,32.0,23.0,69,29.85,6.2,North,25.3,29.9,N/A,,Overcast,10,2012-12-08 01:27:00
3:56 PM,33.1,21.0,61,29.84,10.0,North,25.3,31.1,N/A,,Overcast,10,2012-12-08 01:56:00
4:37 PM,30.2,24.8,80,29.84,2.5,NNE,29.9,38.0,N/A,Snow,Light Snow,20,2012-12-08 02:37:00
4:40 PM,28.4,24.8,86,29.83,1.5,NNE,21.9,-,N/A,Snow,Light Snow,30,2012-12-08 02:40:00
4:46 PM,30.2,26.6,86,29.83,-9999.0,NNE,18.4,-,N/A,Snow,Light Snow,30,2012-12-08 02:46:00
4:49 PM,30.2,26.6,86,29.83,5.0,NNE,17.3,-,N/A,Snow,Light Snow,30,2012-12-08 02:49:00
4:56 PM,30.9,27.0,85,29.83,9.0,North,17.3,-,N/A,,Overcast,10,2012-12-08 02:56:00
5:56 PM,32.0,23.0,69,29.81,10.0,North,25.3,31.1,N/A,,Mostly Cloudy,10,2012-12-08 03:56:00
6:30 PM,30.2,23.0,75,29.80,6.2,NNE,20.7,-,N/A,Snow,Light Snow,20,2012-12-08 04:30:00
6:37 PM,32.0,24.8,75,29.80,6.2,North,19.6,-,N/A,Snow,Light Snow,10,2012-12-08 04:37:00
6:56 PM,33.1,21.0,61,29.80,10.0,North,26.5,32.2,N/A,,Overcast,360,2012-12-08 04:56:00
7:56 PM,32.0,23.0,69,29.78,10.0,North,24.2,31.1,N/A,,Mostly Cloudy,10,2012-12-08 05:56:00
8:12 PM,30.2,24.8,80,29.78,-9999.0,NNE,24.2,35.7,N/A,Snow,Light Snow,20,2012-12-08 06:12:00
8:19 PM,30.2,24.8,80,29.77,5.0,NNE,23.0,34.5,N/A,Snow,Light Snow,20,2012-12-08 06:19:00
8:56 PM,32.0,21.9,66,29.77,10.0,North,27.6,34.5,N/A,,Scattered Clouds,10,2012-12-08 06:56:00
9:07 PM,30.2,24.8,80,29.77,2.5,NNE,29.9,39.1,N/A,Snow,Light Snow,20,2012-12-08 07:07:00
9:17 PM,30.2,26.6,86,29.76,6.2,North,23.0,28.8,N/A,Snow,Light Snow,360,2012-12-08 07:17:00
9:41 PM,30.2,26.6,86,29.76,2.5,North,29.9,35.7,N/A,Snow,Light Snow,10,2012-12-08 07:41:00
9:49 PM,30.2,26.6,86,29.75,5.0,North,23.0,34.5,N/A,Snow,Light Snow,10,2012-12-08 07:49:00
9:56 PM,30.9,26.1,82,29.75,6.0,North,36.8,41.4,N/A,Snow,Light Snow,10,2012-12-08 07:56:00
10:22 PM,30.2,21.2,69,29.74,6.2,North,29.9,34.5,N/A,Snow,Light Snow,360,2012-12-08 08:22:00
10:56 PM,32.0,23.0,69,29.73,10.0,North,28.8,35.7,N/A,,Mostly Cloudy,360,2012-12-08 08:56:00
11:07 PM,30.2,24.8,80,29.72,4.0,North,25.3,36.8,N/A,Snow,Light Snow,10,2012-12-08 09:07:00
11:17 PM,32.0,23.0,69,29.72,6.2,North,25.3,33.4,N/A,,Mostly Cloudy,10,2012-12-08 09:17:00
11:56 PM,32.0,23.0,69,29.72,9.0,North,33.4,38.0,N/A,Snow,Light Snow,10,2012-12-08 09:56:00